Regional Weather Roundup
Issued by NWS Albany, NY

Home | Current Version | Previous Version | Text Only | Print | Product List | Glossary On
Versions: 1 2 3 4 5 6 7 8 9 10 11 12 13 14 15 16 17 18 19 20 21 22 23 24 25 26 27 28 29 30 31 32 33 34 35 36 37 38 39 40 41 42 43 44 45 46 47 48 49 50
000
ASUS41 KALY 290710
RWRALY

NEW YORK STATE HOURLY WEATHER ROUNDUP
NATIONAL WEATHER SERVICE ALBANY NY
300 AM EDT WED JUL 29 2015

NOTE: "FAIR" INDICATES FEW OR NO CLOUDS BELOW 12,000 FEET WITH NO
SIGNIFICANT WEATHER AND/OR NO OBSTRUCTIONS TO VISIBILITY.

NYZ032-033-038>043-046>054-057>066-NYZ062>081-290800-
EAST


CITY           SKY/WX    TMP DP  RH WIND       PRES   REMARKS
ALBANY         MOCLDY    72  63  73 CALM      29.98R
GLENS FALLS    CLEAR     66  64  93 CALM      29.97S FOG
POUGHKEEPSIE   CLEAR     70  67  90 CALM      29.96F
MONTGOMERY     CLEAR     66  65  96 S3        29.98S
WHITE PLAINS   CLEAR     72  69  90 NW5       29.97F
ISLIP          CLEAR     74  71  91 CALM      29.94F
NEW YORK CITY  CLEAR     81  68  64 CALM      29.94F
CENTRAL PARK   CLEAR     80  67  64 W3        29.98F
$$

NYZ005>009-017-018-044>046-055-056-290800-
CENTRAL


CITY           SKY/WX    TMP DP  RH WIND       PRES   REMARKS
FULTON         PTCLDY    63  61  93 CALM      29.99S
SYRACUSE       PTCLDY    66  61  84 E5        29.99F
ROME           PTCLDY    63  60  90 CALM      30.02R
ELMIRA         PTCLDY    65  64  97 CALM      30.02F
BINGHAMTON     PTCLDY    71  63  75 CALM      30.05F
MONTICELLO     CLEAR     64  63  94 CALM      30.05S
$$

NYZ026>034-041>043-290800-
NORTH


CITY           SKY/WX    TMP DP  RH WIND       PRES   REMARKS
WATERTOWN      MOCLDY    61  58  90 CALM      29.97F
FORT DRUM      NOT AVBL
MASSENA        CLEAR     68  62  81 SW5       29.95S
SARANAC LAKE   PTCLDY    59  57  93 CALM      30.02F
PLATTSBURGH    CLEAR     66  65  96 CALM      29.93F
$$

NYZ001>004-010>016-019>021-290800-
WEST


CITY           SKY/WX    TMP DP  RH WIND       PRES   REMARKS
NIAGARA FALLS  CLEAR     68  62  81 CALM      29.98F
BUFFALO        PTCLDY    71  60  68 SE5       29.99F
DUNKIRK        CLEAR     65  60  84 CALM      30.00F
JAMESTOWN      CLEAR     66  57  72 S3        30.06F
WELLSVILLE     CLEAR     69  61  75 CALM      30.09F
ROCHESTER      PTCLDY    70  67  90 SW3       29.99F
PENN YAN       FOG       69  66  90 SW5       30.02F VSB 1
$$

             KEY
       WCI = WIND CHILL INDEX
       VSB = VISIBILITY
       HX  = HEAT INDEX
$$


USA.gov is the U.S. government's official web portal to all federal, state and local government web resources and services.